12:51
Airports
History
Links
Donate
Help keep this website running!
PayPal
Bitcoin
This page is community maintained. The information is intended for PC simulator navigation or reference.
Always use approved charts for navigation.
TN62
Mc Afee STOL Patch
Mc Afee STOL Patch (TN62)
Johnson City, Tennessee, United States (37601)
4
Lat/Lng:36° 22' 20.38" N / 82° 23' 29.51" W
36.372327 / -82.39153
Elevation:1925'ft / 587mMSL
ID / ICAO:TN62
Runways:1
Longest:05-23
Grass 338m / 1,109ft
Nearby Weather12:16 GMT 2017-12-18
Nearby weather at KTRI, Tri-cities Rgnl Tn/va located 7.2 nautical miles from TN62
Altimeter: 30.17
Visibility: 1.0 statute miles
Wind: 0 knots (from 000°)
Temp: 4°c / 39°f
Humidity: 100.0%

METAR: KTRI 181216Z 00000KT 1SM BR BKN003 OVC019 04/04 A3017 RMK AO2 T00440044

(Powered by phpweather)
Nearby VORs <50NM
Nearby NDBs
Runway 05 / 23
Dimensions:338 x 15.2m 1109' x 50'ft
Surface:Grass
Runway 05 [A]Runway 23 [B]
Heading:045°TH 225°TH
Lat:
Lng:
36° 22' 16.6"N
82° 23' 34.36"W
36° 22' 24.15"N
82° 23' 24.66"W
User Notes and Comments
36° 22' 20.38" N / 82° 23' 29.51" W
Distance To
Airport ID:
Nearby Airports
(U) Johnson City 4.6 NM
0A4 E 97°
(C) Tri-cities Rgnl Tn/va 7.2 NM
KTRI ( WX ) N 352°
(R) Indian Springs 11.4 NM
3TN0 N 350°
(U) Elizabethton Muni 12.1 NM
0A9 E 90°
4 Decker Farm 13.3 NM
TN03 SSW 203°
(R) Pensinger 21.2 NM
TN99 WSW 255°
(U) Greeneville-greene County Muni 26.3 NM
KGCY WSW 242°
VFR Chart
Flight Planning at SkyVector.com